Valle Di Andalusia — IBTJ — position and weather

sailwx.info

Track history (hours):
 
Tides and Currents Weather Stations Pressure Air Temp Water Temp Dewpoint Dewpoint Depression Visibility Wind Speed Wind Dir Waves Ship Positions

Valle Di Andalusia

Last reported at 2014-Oct-28 02:32 UTC. Time now 2014-Oct-31 20:45 UTC.
Position N 35°40' E 025°59'.

Length 176 m; draft 10.9 m.

Type: Ship (hazmat cat B). MMSI: 247046200.

Date/timePositionNaut miles runAvg speedWind from/ knotsBaromVisibWave heightAir tempDewpointWater temp
2014-Oct-28 02:32N 35°40' E 025°59'1312.9
2014-Oct-28 01:33N 35°47' E 025°46'1313.2
2014-Oct-28 00:33N 35°54' E 025°33'1413.6
2014-Oct-27 23:33N 36°02' E 025°19'1313.2
2014-Oct-27 22:33N 36°09' E 025°05'1413.5
2014-Oct-27 21:32N 36°16' E 024°51'1413.6
2014-Oct-27 20:33N 36°24' E 024°37'1413.4
2014-Oct-27 19:32N 36°32' E 024°23'1312.8
2014-Oct-27 18:33N 36°40' E 024°12'1413.5
2014-Oct-27 17:32N 36°53' E 024°05'4113.5
2014-Oct-27 14:28N 37°32' E 023°46'1213.4
2014-Oct-27 13:34N 37°43' E 023°41'1212.3
2014-Oct-27 12:34N 37°52' E 023°30'0 0.3
2014-Oct-27 11:32N 37°52' E 023°30'0 0.0
2014-Oct-27 10:31N 37°52' E 023°30'0 0.0
2014-Oct-27 09:31N 37°52' E 023°30'0 0.0
2014-Oct-27 08:33N 37°52' E 023°30'0 0.2
2014-Oct-27 07:34N 37°52' E 023°30'6 5.7
2014-Oct-27 06:33N 37°57' E 023°34'5 4.6
2014-Oct-27 05:32N 38°01' E 023°31'0 0.0
2014-Oct-27 04:31N 38°01' E 023°31'0 0.0
2014-Oct-27 03:25N 38°01' E 023°31'0 0.0
2014-Oct-27 02:31N 38°01' E 023°31'0 0.0
2014-Oct-27 01:27N 38°01' E 023°31'0 0.0
2014-Oct-26 23:32N 38°01' E 023°31'0 0.1
2014-Oct-26 22:33N 38°01' E 023°31'1 1.0
2014-Oct-26 21:33N 38°02' E 023°31'0 0.0
2014-Oct-26 20:32N 38°02' E 023°31'0 0.0
2014-Oct-26 19:32N 38°02' E 023°31'0 0.0
2014-Oct-26 18:31N 38°02' E 023°31'0 0.0
2014-Oct-26 17:31N 38°02' E 023°31'0 0.0
2014-Oct-26 16:31N 38°02' E 023°31'0 0.0
2014-Oct-26 15:33N 38°02' E 023°31'0 0.0
2014-Oct-26 14:33N 38°02' E 023°31'0 0.0
2014-Oct-26 13:29N 38°02' E 023°31'0 0.0
2014-Oct-26 12:32N 38°02' E 023°31'0 0.0
2014-Oct-26 11:31N 38°02' E 023°31'0 0.0
2014-Oct-26 10:31N 38°02' E 023°31'0 0.0
2014-Oct-26 09:28N 38°02' E 023°31'0 0.0
2014-Oct-26 08:33N 38°02' E 023°31'0 0.0
2014-Oct-26 07:33N 38°02' E 023°31'0 0.0
2014-Oct-26 06:32N 38°02' E 023°31'0 0.0
2014-Oct-26 05:32N 38°02' E 023°31'0 0.0
2014-Oct-26 04:31N 38°02' E 023°31'0 0.0
2014-Oct-26 03:31N 38°02' E 023°31'0 0.0
2014-Oct-26 02:28N 38°02' E 023°31'0 0.0
2014-Oct-26 01:33N 38°02' E 023°31'0 0.0
2014-Oct-26 00:33N 38°02' E 023°31'0 0.0
2014-Oct-25 23:32N 38°02' E 023°31'0 0.0
2014-Oct-25 22:29N 38°02' E 023°31'0 0.0
2014-Oct-25 21:28N 38°02' E 023°31'0 0.0
2014-Oct-25 20:31N 38°02' E 023°31'0 0.0
2014-Oct-25 19:31N 38°02' E 023°31'0 0.0
2014-Oct-25 18:33N 38°02' E 023°31'0 0.0
2014-Oct-25 17:33N 38°02' E 023°31'0 0.0
2014-Oct-25 16:32N 38°02' E 023°31'0 0.0
2014-Oct-25 15:23N 38°02' E 023°31'0 0.0
2014-Oct-25 14:31N 38°02' E 023°31'0 0.0
2014-Oct-25 13:32N 38°02' E 023°31'0 0.0
2014-Oct-25 12:33N 38°02' E 023°31'0 0.0
2014-Oct-25 11:33N 38°02' E 023°31'0 0.0
2014-Oct-25 10:33N 38°02' E 023°31'0 0.0
2014-Oct-25 09:32N 38°02' E 023°31'0 0.0
2014-Oct-25 08:32N 38°02' E 023°31'0 0.0
2014-Oct-25 07:31N 38°02' E 023°31'0 0.0
2014-Oct-25 06:31N 38°02' E 023°31'0 0.2
2014-Oct-25 05:31N 38°02' E 023°31'6 5.8
2014-Oct-25 04:33N 37°57' E 023°34'7 7.0
2014-Oct-25 03:33N 37°50' E 023°34'3 2.7
2014-Oct-25 02:31N 37°48' E 023°32'0 0.0
2014-Oct-25 01:31N 37°48' E 023°32'0 0.0
2014-Oct-25 00:33N 37°48' E 023°32'0 0.0
2014-Oct-24 23:33N 37°48' E 023°32'0 0.0
2014-Oct-24 22:32N 37°48' E 023°32'0 0.0
2014-Oct-24 21:33N 37°48' E 023°32'0 0.0
2014-Oct-24 20:34N 37°48' E 023°32'0 0.0
2014-Oct-24 19:33N 37°48' E 023°32'0 0.0
2014-Oct-24 18:33N 37°48' E 023°32'0 0.0
2014-Oct-24 17:33N 37°48' E 023°32'0 0.1
2014-Oct-24 16:33N 37°48' E 023°32'0 0.0
2014-Oct-24 15:33N 37°48' E 023°32'0 0.0
2014-Oct-24 14:34N 37°48' E 023°32'3 3.5
2014-Oct-24 13:34N 37°50' E 023°35'2 2.1
2014-Oct-24 12:33N 37°51' E 023°37'1 0.7
2014-Oct-24 11:33N 37°52' E 023°37'2 1.7
2014-Oct-24 10:33N 37°53' E 023°39'1212.1
2014-Oct-24 09:33N 37°42' E 023°44'4413.3
2014-Oct-24 06:15N 36°59' E 023°58'912.3
2014-Oct-24 05:30N 36°50' E 023°60'1213.1
2014-Oct-24 04:33N 36°37' E 024°01'1512.4
2014-Oct-24 03:22N 36°25' E 024°10'1012.9
2014-Oct-24 02:33N 36°20' E 024°22'1312.7
2014-Oct-24 01:33N 36°13' E 024°35'1212.4
2014-Oct-24 00:33N 36°07' E 024°49'1212.2
2014-Oct-23 23:33N 36°01' E 025°02'1212.1
2014-Oct-23 22:33N 35°56' E 025°15'1212.1
2014-Oct-23 21:33N 35°50' E 025°28'1312.2
2014-Oct-23 20:31N 35°44' E 025°42'  
Track history (hours):
 
Tides and Currents Weather Stations Pressure Air Temp Water Temp Dewpoint Dewpoint Depression Visibility Wind Speed Wind Dir Waves Ship Positions

Valle Di Andalusia

Last reported at 2014-Oct-28 02:32 UTC. Time now 2014-Oct-31 20:45 UTC.
Position N 35°40' E 025°59'.

Length 176 m; draft 10.9 m.

Type: Ship (hazmat cat B). MMSI: 247046200.

Date/timePositionNaut miles runAvg speedWind from/ knotsBaromVisibWave heightAir tempDewpointWater temp
2014-Oct-28 02:32N 35°40' E 025°59'1312.9
2014-Oct-28 01:33N 35°47' E 025°46'1313.2
2014-Oct-28 00:33N 35°54' E 025°33'1413.6
2014-Oct-27 23:33N 36°02' E 025°19'1313.2
2014-Oct-27 22:33N 36°09' E 025°05'1413.5
2014-Oct-27 21:32N 36°16' E 024°51'1413.6
2014-Oct-27 20:33N 36°24' E 024°37'1413.4
2014-Oct-27 19:32N 36°32' E 024°23'1312.8
2014-Oct-27 18:33N 36°40' E 024°12'1413.5
2014-Oct-27 17:32N 36°53' E 024°05'4113.5
2014-Oct-27 14:28N 37°32' E 023°46'1213.4
2014-Oct-27 13:34N 37°43' E 023°41'1212.3
2014-Oct-27 12:34N 37°52' E 023°30'0 0.3
2014-Oct-27 11:32N 37°52' E 023°30'0 0.0
2014-Oct-27 10:31N 37°52' E 023°30'0 0.0
2014-Oct-27 09:31N 37°52' E 023°30'0 0.0
2014-Oct-27 08:33N 37°52' E 023°30'0 0.2
2014-Oct-27 07:34N 37°52' E 023°30'6 5.7
2014-Oct-27 06:33N 37°57' E 023°34'5 4.6
2014-Oct-27 05:32N 38°01' E 023°31'0 0.0
2014-Oct-27 04:31N 38°01' E 023°31'0 0.0
2014-Oct-27 03:25N 38°01' E 023°31'0 0.0
2014-Oct-27 02:31N 38°01' E 023°31'0 0.0
2014-Oct-27 01:27N 38°01' E 023°31'0 0.0
2014-Oct-26 23:32N 38°01' E 023°31'0 0.1
2014-Oct-26 22:33N 38°01' E 023°31'1 1.0
2014-Oct-26 21:33N 38°02' E 023°31'0 0.0
2014-Oct-26 20:32N 38°02' E 023°31'0 0.0
2014-Oct-26 19:32N 38°02' E 023°31'0 0.0
2014-Oct-26 18:31N 38°02' E 023°31'0 0.0
2014-Oct-26 17:31N 38°02' E 023°31'0 0.0
2014-Oct-26 16:31N 38°02' E 023°31'0 0.0
2014-Oct-26 15:33N 38°02' E 023°31'0 0.0
2014-Oct-26 14:33N 38°02' E 023°31'0 0.0
2014-Oct-26 13:29N 38°02' E 023°31'0 0.0
2014-Oct-26 12:32N 38°02' E 023°31'0 0.0
2014-Oct-26 11:31N 38°02' E 023°31'0 0.0
2014-Oct-26 10:31N 38°02' E 023°31'0 0.0
2014-Oct-26 09:28N 38°02' E 023°31'0 0.0
2014-Oct-26 08:33N 38°02' E 023°31'0 0.0
2014-Oct-26 07:33N 38°02' E 023°31'0 0.0
2014-Oct-26 06:32N 38°02' E 023°31'0 0.0
2014-Oct-26 05:32N 38°02' E 023°31'0 0.0
2014-Oct-26 04:31N 38°02' E 023°31'0 0.0
2014-Oct-26 03:31N 38°02' E 023°31'0 0.0
2014-Oct-26 02:28N 38°02' E 023°31'0 0.0
2014-Oct-26 01:33N 38°02' E 023°31'0 0.0
2014-Oct-26 00:33N 38°02' E 023°31'0 0.0
2014-Oct-25 23:32N 38°02' E 023°31'0 0.0
2014-Oct-25 22:29N 38°02' E 023°31'0 0.0
2014-Oct-25 21:28N 38°02' E 023°31'0 0.0
2014-Oct-25 20:31N 38°02' E 023°31'0 0.0
2014-Oct-25 19:31N 38°02' E 023°31'0 0.0
2014-Oct-25 18:33N 38°02' E 023°31'0 0.0
2014-Oct-25 17:33N 38°02' E 023°31'0 0.0
2014-Oct-25 16:32N 38°02' E 023°31'0 0.0
2014-Oct-25 15:23N 38°02' E 023°31'0 0.0
2014-Oct-25 14:31N 38°02' E 023°31'0 0.0
2014-Oct-25 13:32N 38°02' E 023°31'0 0.0
2014-Oct-25 12:33N 38°02' E 023°31'0 0.0
2014-Oct-25 11:33N 38°02' E 023°31'0 0.0
2014-Oct-25 10:33N 38°02' E 023°31'0 0.0
2014-Oct-25 09:32N 38°02' E 023°31'0 0.0
2014-Oct-25 08:32N 38°02' E 023°31'0 0.0
2014-Oct-25 07:31N 38°02' E 023°31'0 0.0
2014-Oct-25 06:31N 38°02' E 023°31'0 0.2
2014-Oct-25 05:31N 38°02' E 023°31'6 5.8
2014-Oct-25 04:33N 37°57' E 023°34'7 7.0
2014-Oct-25 03:33N 37°50' E 023°34'3 2.7
2014-Oct-25 02:31N 37°48' E 023°32'0 0.0
2014-Oct-25 01:31N 37°48' E 023°32'0 0.0
2014-Oct-25 00:33N 37°48' E 023°32'0 0.0
2014-Oct-24 23:33N 37°48' E 023°32'0 0.0
2014-Oct-24 22:32N 37°48' E 023°32'0 0.0
2014-Oct-24 21:33N 37°48' E 023°32'0 0.0
2014-Oct-24 20:34N 37°48' E 023°32'0 0.0
2014-Oct-24 19:33N 37°48' E 023°32'0 0.0
2014-Oct-24 18:33N 37°48' E 023°32'0 0.0
2014-Oct-24 17:33N 37°48' E 023°32'0 0.1
2014-Oct-24 16:33N 37°48' E 023°32'0 0.0
2014-Oct-24 15:33N 37°48' E 023°32'0 0.0
2014-Oct-24 14:34N 37°48' E 023°32'3 3.5
2014-Oct-24 13:34N 37°50' E 023°35'2 2.1
2014-Oct-24 12:33N 37°51' E 023°37'1 0.7
2014-Oct-24 11:33N 37°52' E 023°37'2 1.7
2014-Oct-24 10:33N 37°53' E 023°39'1212.1
2014-Oct-24 09:33N 37°42' E 023°44'4413.3
2014-Oct-24 06:15N 36°59' E 023°58'912.3
2014-Oct-24 05:30N 36°50' E 023°60'1213.1
2014-Oct-24 04:33N 36°37' E 024°01'1512.4
2014-Oct-24 03:22N 36°25' E 024°10'1012.9
2014-Oct-24 02:33N 36°20' E 024°22'1312.7
2014-Oct-24 01:33N 36°13' E 024°35'1212.4
2014-Oct-24 00:33N 36°07' E 024°49'1212.2
2014-Oct-23 23:33N 36°01' E 025°02'1212.1
2014-Oct-23 22:33N 35°56' E 025°15'1212.1
2014-Oct-23 21:33N 35°50' E 025°28'1312.2
2014-Oct-23 20:31N 35°44' E 025°42'  

Dump ship's entire track history